User: anonymous   Login
Location: Chacón
(10.5789°N, 66.9317°W)
Time: 00:46:21
(UTC+00:00)
Language:

BREEZE-M DEB (TANK) - Orbit

View from above orbital plane
View from above orbital plane
View from above satellite
View from above satellite

Ground track
Ground track

The orbit data is extracted from the following two-line orbital elements,

1 28870U 05036C   24194.47481733  .00003526  00000-0  84284-3 0  9991
2 28870  49.3936 254.7582 5413116 104.4876 318.9440  4.92981529364499
Epoch (UTC): 12 July 2024 11:23:44
Eccentricity: 0.5413116
inclination: 49.3936°
perigee height: 311 km
apogee height: 16099 km
right ascension of ascending node: 254.7582°
argument of perigee: 104.4876°
revolutions per day: 4.92981529
mean anomaly at epoch: 318.9440°
orbit number at epoch: 36449

The dashed part of the orbit path shows where the satellite is in the earth's shadow,  

DLR